This demonstration page uses our WeatherBlox Daily Observations layout. Learn more.

Left ArrowRight Arrow

38.88101, -77.10428

Hourly Observations for May 8, 2016

Temp ( °F °C ) Dew Point ( °F °C ) Humidity (%) Winds ( mph kmh ) Pressure ( in mb ) Visibility ( mi km ) Precip ( " mm )
12:52 am 00:52 Cloudy 58 14.4 51 10.6 78 78 S 9 15 29.73 1007 10 16 0.00 0.00
1:52 am 01:52 Cloudy 57 13.9 52 11.1 83 83 SSW 9 15 29.72 1006 10 16 0.00 0.03
2:52 am 02:52 Cloudy 57 13.9 52 11.1 83 83 SSW 5 7 29.72 1006 10 16 0.00 0.00
2:59 am 02:59 Cloudy with Light Rain 57 13.9 52 11.1 83 83 S 6 9 29.71 1006 10 16 0.00 0.03
3:52 am 03:52 Cloudy with Light Rain 57 13.9 54 12.2 90 90 S 9 15 29.68 1005 10 16 0.03 0.76
4:52 am 04:52 Partly Cloudy 55 12.8 53 11.7 93 93 WSW 6 9 29.66 1005 10 16 0.01 0.25
5:52 am 05:52 Mostly Cloudy 54 12.2 52 11.1 93 93 SW 5 7 29.68 1005 10 16 0.00 0.00
6:52 am 06:52 Mostly Cloudy 55 12.8 53 11.7 93 93 SSW 3 6 29.69 1005 10 16 0.00 0.00
7:52 am 07:52 Mostly Cloudy 58 14.4 55 12.8 90 90 Calm 29.72 1006 10 16 0.00 0.00
8:52 am 08:52 Cloudy 64 17.8 56 13.3 75 75 WNW 5 7 29.73 1007 10 16 0.00 0.00
9:52 am 09:52 Sunny 67 19.4 51 10.6 57 57 NW 17 28 29.75 1008 10 16 0.00 0.00
9:56 am 09:56 Cloudy 66 19 50 10 56 56 NW 16 26 29.77 1008 10 16 0.00 0.00
10:52 am 10:52 Cloudy 68 20 35 1.7 30 30 NW 18 30 29.79 1009 10 16 0.00 0.00
11:52 am 11:52 Mostly Cloudy 67 19.4 39 3.9 36 36 NNW 20 31 29.81 1010 10 16 0.00 0.00
12:52 pm 12:52 Mostly Cloudy 69 20.6 35 1.7 29 29 NW 20 31 29.83 1010 10 16 0.00 0.00
1:52 pm 13:52 Mostly Cloudy 70 21.1 38 3.3 31 31 NW 13 20 29.83 1010 10 16 0.00 0.00
2:52 pm 14:52 Mostly Cloudy 72 22.2 37 2.8 28 28 NW 15 24 29.84 1011 10 16 0.00 0.00
3:52 pm 15:52 Mostly Cloudy 71 21.7 32 0 24 24 W 21 33 29.84 1011 10 16 0.00 0.00
4:52 pm 16:52 Mostly Cloudy 70 21.1 32 0 25 25 WNW 13 20 29.85 1011 10 16 0.00 0.00
5:52 pm 17:52 Mostly Cloudy 69 20.6 33 0.6 26 26 NNW 12 19 29.86 1011 10 16 0.00 0.00
6:52 pm 18:52 Cloudy 68 20 33 0.6 27 27 NNW 12 19 29.87 1012 10 16 0.00 0.00
7:52 pm 19:52 Mostly Cloudy 67 19.4 33 0.6 28 28 NNW 8 13 29.90 1012 10 16 0.00 0.00
8:52 pm 20:52 Mostly Cloudy 63 17.2 35 1.7 35 35 NNW 6 9 29.92 1013 10 16 0.00 0.00
9:52 pm 21:52 Mostly Cloudy 62 16.7 35 1.7 37 37 N 5 7 29.96 1015 10 16 0.00 0.00
10:52 pm 22:52 Mostly Cloudy 61 16.1 33 0.6 35 35 NNW 7 11 29.98 1015 10 16 0.00 0.00
11:52 pm 23:52 Mostly Cloudy 58 14.4 35 1.7 42 42 NNW 10 17 30.01 1016 10 16 0.00 0.00

Powered by AerisWeather